This demonstration page uses our WeatherBlox Daily Observations layout. Learn more.

Left ArrowRight Arrow

39.08367, -84.50855

Hourly Observations for May 26, 2017

Temp ( °F °C ) Dew Point ( °F °C ) Humidity (%) Winds ( mph kmh ) Pressure ( in mb ) Visibility ( mi km ) Precip ( " mm )
12:53 am 00:53 Clear 60 15.6 57 13.9 90 90 SSW 8 13 29.80 1009 10 16 N/A
1:53 am 01:53 Clear 59 15 55 12.8 87 87 W 7 11 29.81 1010 10 16 N/A
2:53 am 02:53 Clear 58 14.4 54 12.2 87 87 SW 6 9 29.81 1010 10 16 N/A
3:53 am 03:53 Clear 56 13.3 54 12.2 93 93 WSW 5 7 29.83 1010 10 16 N/A
4:53 am 04:53 Clear 54 12.2 53 11.7 97 97 WSW 6 9 29.85 1011 9 14 N/A
5:53 am 05:53 Clear 55 12.8 53 11.7 93 93 WSW 7 11 29.86 1011 8 13 N/A
6:53 am 06:53 Sunny with Mist and Fog 54 12.2 53 11.7 97 97 SSW 7 11 29.89 1012 6 10 N/A
7:53 am 07:53 Sunny 58 14.4 56 13.3 93 93 WSW 6 9 29.91 1013 8 13 N/A
8:53 am 08:53 Sunny 63 17.2 58 14.4 84 84 W 6 9 29.93 1013 10 16 N/A
9:53 am 09:53 Sunny 67 19.4 59 15 76 76 N N/A 29.93 1014 10 16 N/A
10:53 am 10:53 Sunny 70 21.1 60 15.6 71 71 W 7 11 29.92 1013 10 16 N/A
11:53 am 11:53 Sunny 73 22.8 58 14.4 59 59 W 5 7 29.93 1014 10 16 N/A
12:53 pm 12:53 Partly Cloudy 75 23.9 59 15 58 58 W 13 20 29.92 1013 10 16 N/A
1:53 pm 13:53 Mostly Sunny 76 24.4 60 15.6 58 58 WSW 8 13 29.89 1012 10 16 N/A
2:53 pm 14:53 Mostly Sunny 77 25 59 15 54 54 S 9 15 29.87 1011 10 16 N/A
3:53 pm 15:53 Mostly Sunny 77 25 60 15.6 56 56 SW 8 13 29.86 1011 10 16 N/A
4:53 pm 16:53 Sunny 78 25.6 60 15.6 54 54 S 8 13 29.85 1011 10 16 N/A
5:53 pm 17:53 Partly Cloudy 78 25.6 61 16.1 56 56 SSW 10 17 29.86 1011 10 16 N/A
6:53 pm 18:53 Mostly Sunny 77 25 62 16.7 60 60 S 8 13 29.85 1011 10 16 N/A
7:53 pm 19:53 Mostly Cloudy 75 23.9 62 16.7 64 64 S 6 9 29.85 1011 10 16 N/A
8:53 pm 20:53 Mostly Cloudy 69 20.6 64 17.8 84 84 SSE 3 6 29.85 1011 10 16 N/A
9:53 pm 21:53 Cloudy 70 21.1 65 18.3 84 84 SSW 5 7 29.85 1011 10 16 N/A
10:53 pm 22:53 Cloudy 71 21.7 65 18.3 81 81 SSW 6 9 29.86 1011 10 16 N/A
11:53 pm 23:53 Cloudy 72 22.2 64 17.8 76 76 SSW 6 9 29.85 1011 10 16 N/A

Powered by AerisWeather